Regional Weather Roundup
Issued by NWS

Home | Current Version | Previous Version | Graphics & Text | Print | Product List | Glossary On
Versions: 1 2 3 4 5 6 7 8 9 10 11 12 13 14 15 16 17 18 19 20 21 22 23 24 25 26 27 28 29 30 31 32 33 34 35 36 37 38 39 40 41 42 43 44 45 46 47 48 49 50
000
ASUS43 KBIS 060910
RWRND

NORTH DAKOTA REGIONAL WEATHER ROUNDUP
NATIONAL WEATHER SERVICE BISMARCK ND
400 AM CDT MON JUL 06 2015

NOTE: "FAIR" INDICATES FEW OR NO CLOUDS BELOW 12,000 FEET WITH NO
SIGNIFICANT WEATHER AND/OR OBSTRUCTIONS TO VISIBILITY.


NDZ001>003-009>011-017-061000-
NORTHWEST NORTH DAKOTA

CITY           SKY/WX    TMP DP  RH WIND       PRES   REMARKS
WILLISTON      MOCLDY    60  50  69 N6        30.12R
MINOT          PTCLDY    55  51  86 NW9       30.07R FOG
MINOT AFB      PTCLDY    56  55  99 NW8       30.07R
$$

NDZ018>021-031>035-040>046-061000-
SOUTHWEST NORTH DAKOTA

CITY           SKY/WX    TMP DP  RH WIND       PRES   REMARKS
BISMARCK       MOCLDY    62  54  74 N8        30.05R
DICKINSON      CLOUDY    58  51  78 NW5       30.09R
GARRISON         N/A     56  54  93 N6        30.06R
HETTINGER ARPT CLOUDY    58  51  78 NW9       30.12R
$$

NDZ004>008-012>016-024-026-027-054-061000-
NORTHEAST NORTH DAKOTA

CITY           SKY/WX    TMP DP  RH WIND       PRES   REMARKS
GRAND FORKS    CLOUDY    60  55  83 N14       29.98R HAZE
GRND FRKS AFB  MOCLDY    59  56  89 N13       29.99R FOG
DEVILS LAKE    MOCLDY    57  52  82 NE10G16   30.02R
$$

NDZ022-023-025-028>030-036>039-047>053-061000-
SOUTHEAST NORTH DAKOTA

CITY           SKY/WX    TMP DP  RH WIND       PRES   REMARKS
FARGO          CLOUDY    65  60  84 N13       29.91S HAZE
JAMESTOWN      CLOUDY    63  56  78 N13       29.98R HAZE
$$




USA.gov is the U.S. government's official web portal to all federal, state and local government web resources and services.